Weather History for KSFM - March, 2014

Change the Weather History Date:

Friday, March 21, 2014

  Actual Average Record
Temperature  
Mean Temperature 34 °F -  
Max Temperature 39 °F 40 °F 82 °F (2012)
Min Temperature 30 °F 23 °F 5 °F (2007)
Degree Days  
Heating Degree Days 30    
Moisture  
Dew Point 18 °F    
Average Humidity 51    
Maximum Humidity 65    
Minimum Humidity 41    
Precipitation  
Precipitation 0.00 in - - ()
Sea Level Pressure  
Sea Level Pressure 29.78 in    
Wind  
Wind Speed 13 mph (West)    
Max Wind Speed 24 mph    
Max Gust Speed 33 mph    
Visibility 10 miles    
Events      
Averages and records for this station are not official NWS values.
T = Trace of Precipitation, MM = Missing Value Source: NWS Daily Summary

Daily Weather History Graph

Daily Weather History Graph

Search for Another Location

Airport or City:

Trip Planner

Search our weather history database for the weather conditions in past years. The results will help you decide how hot, cold, wet, or windy it might be!

Date:

Astronomy

Mar. 21, 2014 Rise Set
Actual Time 6:44 AM EDT 6:56 PM EDT
Civil Twilight 6:15 AM EDT 7:24 PM EDT
Nautical Twilight 5:42 AM EDT 7:58 PM EDT
Astronomical Twilight 5:08 AM EDT 8:32 PM EDT
Moon No Moon Rise 9:25 AM EDT (3/21)
Length of Visible Light 13h 09m
Length of Day
12h 12m
Waning Gibbous, 75% of the Moon is Illuminated
Mar 21
Waning Gibbous
Mar 23
Last Quarter
Mar 30
New
Apr 7
First Quarter
Apr 15
Full

Hourly Weather History & Observations

Time (EDT) Temp. Windchill Dew Point Humidity Pressure Visibility Wind Dir Wind Speed Gust Speed Precip Events Conditions
12:15 AM 37.4 °F 28.9 °F 24.8 °F 60% 29.66 in 10.0 mi West 13.8 mph 24.2 mph N/A   Scattered Clouds
12:35 AM 35.6 °F 25.2 °F 24.8 °F 65% 29.66 in 10.0 mi WSW 18.4 mph 28.8 mph N/A   Clear
12:55 AM 35.6 °F 27.1 °F 21.2 °F 56% 29.66 in 10.0 mi WSW 12.7 mph 24.2 mph N/A   Clear
1:15 AM 35.6 °F 27.1 °F 21.2 °F 56% 29.67 in 10.0 mi West 12.7 mph 17.3 mph N/A   Clear
1:35 AM 35.6 °F 25.5 °F 21.2 °F 56% 29.66 in 10.0 mi SW 17.3 mph - N/A   Partly Cloudy
1:55 AM 35.6 °F 27.1 °F 21.2 °F 56% 29.67 in 10.0 mi WSW 12.7 mph 17.3 mph N/A   Partly Cloudy
2:15 AM 35.6 °F 27.5 °F 21.2 °F 56% 29.67 in 10.0 mi West 11.5 mph 19.6 mph N/A   Clear
2:35 AM 33.8 °F 27.7 °F 21.2 °F 60% 29.68 in 10.0 mi WSW 6.9 mph - N/A   Clear
2:55 AM 33.8 °F 26.4 °F 21.2 °F 60% 29.67 in 10.0 mi WSW 9.2 mph - N/A   Scattered Clouds
3:15 AM 33.8 °F 28.6 °F 17.6 °F 52% 29.68 in 10.0 mi SSW 5.8 mph - N/A   Mostly Cloudy
3:35 AM 33.8 °F 27.7 °F 19.4 °F 56% 29.68 in 10.0 mi WSW 6.9 mph - N/A   Scattered Clouds
3:55 AM 33.8 °F 27.0 °F 19.4 °F 56% 29.68 in 10.0 mi WSW 8.1 mph - N/A   Clear
4:15 AM 32.0 °F 27.5 °F 21.2 °F 64% 29.68 in 10.0 mi SW 4.6 mph - N/A   Clear
4:35 AM 33.8 °F 29.6 °F 21.2 °F 60% 29.68 in 10.0 mi SW 4.6 mph - N/A   Clear
4:55 AM 33.8 °F 27.7 °F 19.4 °F 56% 29.69 in 10.0 mi SW 6.9 mph - N/A   Clear
5:15 AM 33.8 °F 29.6 °F 19.4 °F 56% 29.69 in 10.0 mi SW 4.6 mph - N/A   Clear
5:35 AM 32.0 °F 23.6 °F 19.4 °F 60% 29.69 in 10.0 mi WSW 10.4 mph - N/A   Clear
5:55 AM 33.8 °F 27.0 °F 19.4 °F 56% 29.70 in 10.0 mi WSW 8.1 mph - N/A   Partly Cloudy
6:15 AM 33.8 °F 26.4 °F 21.2 °F 60% 29.70 in 10.0 mi SW 9.2 mph - N/A   Mostly Cloudy
6:35 AM 32.0 °F 22.5 °F 19.4 °F 60% 29.71 in 10.0 mi WSW 12.7 mph - N/A   Mostly Cloudy
6:55 AM 32.0 °F 23.0 °F 19.4 °F 60% 29.71 in 10.0 mi WSW 11.5 mph - N/A   Mostly Cloudy
7:15 AM 33.8 °F 27.0 °F 19.4 °F 56% 29.71 in 10.0 mi SW 8.1 mph - N/A   Mostly Cloudy
7:35 AM 33.8 °F 24.8 °F 21.2 °F 60% 29.71 in 10.0 mi West 12.7 mph 19.6 mph N/A   Overcast
7:55 AM 33.8 °F 23.9 °F 21.2 °F 60% 29.72 in 10.0 mi West 15.0 mph 20.7 mph N/A   Scattered Clouds
8:15 AM 33.8 °F 24.3 °F 19.4 °F 56% 29.72 in 10.0 mi West 13.8 mph 17.3 mph N/A   Mostly Cloudy
8:35 AM 35.6 °F 27.1 °F 19.4 °F 52% 29.73 in 10.0 mi West 12.7 mph 23.0 mph N/A   Overcast
8:55 AM 35.6 °F 25.5 °F 19.4 °F 52% 29.73 in 10.0 mi West 17.3 mph 23.0 mph N/A   Overcast
9:15 AM 35.6 °F 26.6 °F 21.2 °F 56% 29.74 in 10.0 mi West 13.8 mph 21.9 mph N/A   Overcast
9:35 AM 35.6 °F 26.6 °F 17.6 °F 48% 29.74 in 10.0 mi WNW 13.8 mph 24.2 mph N/A   Overcast
9:55 AM 35.6 °F 28.6 °F 17.6 °F 48% 29.75 in 10.0 mi WNW 9.2 mph - N/A   Overcast
10:15 AM 35.6 °F 25.2 °F 19.4 °F 52% 29.75 in 10.0 mi WNW 18.4 mph 26.5 mph N/A   Mostly Cloudy
10:35 AM 35.6 °F 25.2 °F 19.4 °F 52% 29.76 in 10.0 mi West 18.4 mph 28.8 mph N/A   Scattered Clouds
10:55 AM 35.6 °F 25.9 °F 21.2 °F 56% 29.76 in 10.0 mi West 16.1 mph 32.2 mph N/A   Scattered Clouds
11:15 AM 37.4 °F 29.3 °F 19.4 °F 48% 29.76 in 10.0 mi WNW 12.7 mph 28.8 mph N/A   Mostly Cloudy
11:35 AM 37.4 °F 27.2 °F 17.6 °F 45% 29.77 in 10.0 mi WNW 19.6 mph 31.1 mph N/A   Mostly Cloudy
11:55 AM 35.6 °F 25.2 °F 17.6 °F 48% 29.77 in 10.0 mi West 18.4 mph 25.3 mph N/A   Mostly Cloudy
12:15 PM 37.4 °F 27.2 °F 17.6 °F 45% 29.78 in 10.0 mi WNW 19.6 mph 26.5 mph N/A   Overcast
12:35 PM 37.4 °F 28.5 °F 17.6 °F 45% 29.78 in 10.0 mi WNW 15.0 mph 28.8 mph N/A   Mostly Cloudy
12:55 PM 35.6 °F 24.2 °F 17.6 °F 48% 29.79 in 10.0 mi WNW 21.9 mph 27.6 mph N/A   Overcast
1:15 PM 37.4 °F 27.8 °F 17.6 °F 45% 29.78 in 10.0 mi West 17.3 mph 24.2 mph N/A   Overcast
1:35 PM 37.4 °F 27.8 °F 17.6 °F 45% 29.78 in 10.0 mi West 17.3 mph 24.2 mph N/A   Overcast
1:55 PM 37.4 °F 28.5 °F 17.6 °F 45% 29.78 in 10.0 mi West 15.0 mph 24.2 mph N/A   Overcast
2:15 PM 37.4 °F 29.8 °F 17.6 °F 45% 29.79 in 10.0 mi WNW 11.5 mph 21.9 mph N/A   Mostly Cloudy
2:35 PM 37.4 °F 28.9 °F 17.6 °F 45% 29.79 in 10.0 mi WNW 13.8 mph 25.3 mph N/A   Mostly Cloudy
2:55 PM 39.2 °F 30.5 °F 17.6 °F 42% 29.78 in 10.0 mi West 16.1 mph 25.3 mph N/A   Mostly Cloudy
3:15 PM 39.2 °F 30.2 °F 17.6 °F 42% 29.79 in 10.0 mi WNW 17.3 mph 26.5 mph N/A   Mostly Cloudy
3:35 PM 37.4 °F 26.6 °F 17.6 °F 45% 29.79 in 10.0 mi WNW 21.9 mph 27.6 mph N/A   Mostly Cloudy
3:55 PM 39.2 °F 30.2 °F 17.6 °F 42% 29.79 in 10.0 mi West 17.3 mph 27.6 mph N/A   Scattered Clouds
4:15 PM 37.4 °F 26.9 °F 17.6 °F 45% 29.79 in 10.0 mi West 20.7 mph 33.4 mph N/A   Clear
4:35 PM 37.4 °F 27.8 °F 17.6 °F 45% 29.80 in 10.0 mi WNW 17.3 mph 26.5 mph N/A   Clear
4:55 PM 37.4 °F 27.2 °F 17.6 °F 45% 29.81 in 10.0 mi West 19.6 mph 27.6 mph N/A   Scattered Clouds
5:15 PM 37.4 °F 26.1 °F 15.8 °F 41% 29.82 in 10.0 mi WNW 24.2 mph 32.2 mph N/A   Mostly Cloudy
5:35 PM 37.4 °F 27.2 °F 15.8 °F 41% 29.83 in 10.0 mi WNW 19.6 mph 29.9 mph N/A   Scattered Clouds
5:55 PM 37.4 °F 26.6 °F 15.8 °F 41% 29.84 in 10.0 mi WNW 21.9 mph 29.9 mph N/A   Scattered Clouds
6:15 PM 35.6 °F 25.5 °F 15.8 °F 44% 29.85 in 10.0 mi WNW 17.3 mph 28.8 mph N/A   Mostly Cloudy
6:35 PM 35.6 °F 26.6 °F 15.8 °F 44% 29.86 in 10.0 mi West 13.8 mph 25.3 mph N/A   Scattered Clouds
6:55 PM 35.6 °F 28.0 °F 15.8 °F 44% 29.87 in 10.0 mi WNW 10.4 mph 21.9 mph N/A   Clear
7:15 PM 35.6 °F 25.5 °F 15.8 °F 44% 29.87 in 10.0 mi WNW 17.3 mph 24.2 mph N/A   Clear
7:35 PM 33.8 °F 23.9 °F 15.8 °F 48% 29.88 in 10.0 mi WNW 15.0 mph 25.3 mph N/A   Clear
7:55 PM 33.8 °F 24.8 °F 15.8 °F 48% 29.89 in 10.0 mi West 12.7 mph 21.9 mph N/A   Clear
8:15 PM 33.8 °F 24.8 °F 15.8 °F 48% 29.90 in 10.0 mi West 12.7 mph 24.2 mph N/A   Clear
8:35 PM 33.8 °F 25.8 °F 15.8 °F 48% 29.92 in 10.0 mi WNW 10.4 mph 17.3 mph N/A   Clear
8:55 PM 33.8 °F 25.3 °F 17.6 °F 52% 29.93 in 10.0 mi WNW 11.5 mph - N/A   Clear
9:15 PM 33.8 °F 29.6 °F 15.8 °F 48% 29.93 in 10.0 mi WNW 4.6 mph - N/A   Clear
9:35 PM 33.8 °F 27.7 °F 15.8 °F 48% 29.94 in 10.0 mi WNW 6.9 mph - N/A   Clear
9:55 PM 32.0 °F 27.5 °F 12.2 °F 44% 29.94 in 10.0 mi West 4.6 mph - N/A   Clear
10:15 PM 33.8 °F 25.3 °F 14.0 °F 44% 29.94 in 10.0 mi West 11.5 mph - N/A   Clear
10:35 PM 32.0 °F 21.2 °F 15.8 °F 51% 29.95 in 10.0 mi West 16.1 mph - N/A   Clear
10:55 PM 32.0 °F 23.0 °F 15.8 °F 51% 29.95 in 10.0 mi West 11.5 mph - N/A   Clear
11:15 PM 32.0 °F 25.6 °F 15.8 °F 51% 29.96 in 10.0 mi West 6.9 mph - N/A   Clear
11:35 PM 30.2 °F 22.6 °F 12.2 °F 47% 29.96 in 10.0 mi WSW 8.1 mph - N/A   Clear
11:55 PM 30.2 °F 21.9 °F 12.2 °F 47% 29.96 in 10.0 mi West 9.2 mph - N/A   Clear